TimeCDT,TemperatureF,Dew PointF,Humidity,Sea Level PressureIn,VisibilityMPH,Wind Direction,Wind SpeedMPH,Gust SpeedMPH,PrecipitationIn,Events,Conditions,WindDirDegrees,DateUTC
12:53 AM,45.0,41.0,86,30.20,10.0,North,8.1,-,0.01,Rain,Light Rain,350,2012-10-05 05:53:00
1:53 AM,45.0,39.0,80,30.22,10.0,NNW,8.1,-,0.00,,Mostly Cloudy,340,2012-10-05 06:53:00
2:53 AM,44.6,37.4,76,30.23,10.0,NNW,4.6,-,N/A,,Overcast,330,2012-10-05 07:53:00
3:53 AM,44.1,37.9,79,30.24,10.0,NNW,5.8,-,N/A,,Clear,340,2012-10-05 08:53:00
4:53 AM,42.1,36.0,79,30.24,10.0,NNW,3.5,-,N/A,,Clear,330,2012-10-05 09:53:00
5:53 AM,42.1,36.0,79,30.25,10.0,WNW,5.8,-,N/A,,Scattered Clouds,300,2012-10-05 10:53:00
6:53 AM,42.1,36.0,79,30.25,10.0,NW,3.5,-,N/A,,Overcast,310,2012-10-05 11:53:00
7:53 AM,42.1,36.0,79,30.23,10.0,NNW,6.9,-,0.00,Rain,Light Rain,340,2012-10-05 12:53:00
8:53 AM,42.1,35.1,76,30.25,10.0,NNW,5.8,-,0.00,,Overcast,330,2012-10-05 13:53:00
9:53 AM,43.0,34.0,71,30.25,10.0,NNW,8.1,-,N/A,,Overcast,340,2012-10-05 14:53:00
10:53 AM,44.1,34.0,68,30.25,10.0,WNW,4.6,-,N/A,,Overcast,300,2012-10-05 15:53:00
11:53 AM,46.0,34.0,63,30.23,10.0,Variable,4.6,-,N/A,,Overcast,0,2012-10-05 16:53:00
12:53 PM,46.0,30.9,56,30.21,10.0,NW,10.4,18.4,N/A,,Overcast,310,2012-10-05 17:53:00
1:53 PM,46.0,30.9,56,30.22,10.0,NW,10.4,16.1,N/A,,Overcast,320,2012-10-05 18:53:00
2:53 PM,42.1,33.1,70,30.23,10.0,NW,17.3,27.6,0.00,,Overcast,310,2012-10-05 19:53:00
3:53 PM,42.1,36.0,79,30.22,10.0,NW,8.1,-,0.00,,Overcast,310,2012-10-05 20:53:00
4:53 PM,43.0,34.0,71,30.20,10.0,WNW,5.8,-,N/A,,Overcast,290,2012-10-05 21:53:00
5:53 PM,43.0,33.1,68,30.19,10.0,Variable,5.8,-,N/A,,Overcast,0,2012-10-05 22:53:00
6:53 PM,41.0,33.1,73,30.19,10.0,West,5.8,-,N/A,,Partly Cloudy,280,2012-10-05 23:53:00
7:53 PM,37.9,33.1,83,30.21,10.0,West,5.8,-,N/A,,Clear,260,2012-10-06 00:53:00
8:53 PM,35.1,32.0,89,30.21,10.0,WSW,6.9,-,N/A,,Clear,250,2012-10-06 01:53:00
9:53 PM,35.1,32.0,89,30.21,10.0,West,5.8,-,N/A,,Clear,260,2012-10-06 02:53:00
10:53 PM,33.1,30.0,89,30.21,10.0,WSW,4.6,-,N/A,,Clear,250,2012-10-06 03:53:00
11:53 PM,32.0,30.0,92,30.20,10.0,WSW,4.6,-,N/A,,Clear,240,2012-10-06 04:53:00